Wind_Speed
68 69 70 72 75 77 77 75 72 70 68 65 63 64 66 67 66 65 64 62 60 58 55 53 50 49 50 53 55 57 59 61 64 70 77 83 87 90 91 89 87 86 87 87 87 86 85 82 81 79 76 73 73 74 77 79 80 77 76 75 75 76 74 73 73 71 67 65 64 65 66 64 61 58 56 56 55 55 55 56 56 56 54 50 46 45 45
73 74 76 79 81 81 78 75 72 70 68 66 63 63 65 67 67 64 63 61 59 58 58 56 53 51 51 52 54 57 58 60 62 67 73 80 85 89 91 90 90 89 90 90 88 87 86 83 81 79 76 74 75 76 77 80 81 78 76 76 77 78 75 74 76 74 70 67 65 65 67 65 62 59 58 59 58 57 58 59 59 58 55 52 49 48 48
79 81 83 85 84 82 79 75 72 69 68 66 64 63 65 67 67 64 61 60 59 59 61 59 55 53 52 51 53 55 56 59 61 64 71 78 83 87 90 91 91 91 92 90 88 87 86 83 82 81 79 77 76 77 78 80 80 77 75 77 79 78 75 76 78 76 70 68 66 65 66 66 64 62 61 61 61 60 61 63 62 59 57 56 54 52 51
87 88 88 87 85 82 79 76 72 69 68 67 65 64 65 67 67 64 61 60 60 61 62 60 56 54 51 50 52 54 55 58 60 62 68 75 81 86 88 91 93 92 92 91 89 87 86 84 84 83 83 81 79 79 78 77 77 76 75 77 79 77 76 77 78 76 71 70 69 68 69 69 68 67 65 63 63 64 65 65 64 62 61 60 58 55 53
91 90 89 86 84 82 79 77 73 70 69 69 67 65 66 67 68 66 63 62 61 62 63 61 58 55 52 51 53 54 55 58 59 60 65 71 79 84 88 91 93 92 93 93 91 88 86 86 86 86 85 84 82 81 78 75 74 74 76 78 78 77 76 76 77 76 73 72 72 72 72 71 70 70 69 67 67 68 68 67 65 64 63 62 60 58 54
93 91 89 87 85 83 81 79 76 72 71 72 69 68 68 69 69 69 67 64 63 64 66 65 62 58 54 53 54 54 56 58 58 60 65 71 78 84 88 91 93 94 94 94 93 91 89 88 89 89 86 84 82 80 78 75 75 74 76 77 77 76 75 74 75 75 74 74 74 73 72 72 72 71 71 71 70 70 69 67 66 66 65 65 63 60 57
94 92 90 89 87 85 83 81 79 76 74 74 73 71 71 72 72 71 70 68 66 67 69 68 64 61 58 56 56 55 55 58 59 62 66 72 78 84 88 92 96 97 96 96 96 94 91 91 91 90 86 83 83 80 78 78 77 76 75 75 75 74 73 72 72 74 75 75 73 72 72 72 72 72 72 73 73 71 70 69 68 68 68 67 66 63 59
95 93 92 91 89 87 85 83 82 79 76 76 75 75 75 75 75 75 74 72 71 70 72 71 67 64 61 57 55 54 54 57 60 61 65 71 77 82 87 92 95 97 97 97 98 97 94 94 93 90 86 83 83 81 80 79 79 78 77 76 76 74 72 70 70 72 74 74 72 71 71 71 72 72 72 73 72 71 71 72 72 72 71 70 69 66 62
95 94 92 91 89 87 86 84 83 82 79 78 77 78 78 77 77 77 76 76 75 74 74 73 70 67 62 57 55 55 55 57 58 58 62 68 74 79 84 89 92 95 97 98 99 99 97 96 93 89 86 85 83 82 80 79 79 78 79 79 78 75 72 71 71 72 72 72 71 70 69 70 70 71 71 71 71 71 73 74 75 75 74 72 70 68 65
93 91 90 89 87 86 85 84 84 83 81 80 79 80 81 80 80 80 79 79 78 78 77 75 72 68 63 59 58 58 57 57 58 58 60 65 71 75 81 87 90 94 97 99 100 101 99 96 92 89 87 85 83 82 81 79 79 79 80 80 78 75 75 74 74 73 73 72 71 69 69 69 69 70 69 70 71 72 74 75 75 74 74 73 71 70 68
88 87 86 85 84 84 83 83 83 83 82 82 81 82 83 83 82 82 82 81 81 80 80 77 74 70 65 63 61 60 58 58 58 58 58 62 68 73 78 85 90 93 97 99 100 100 98 95 92 88 87 85 84 83 82 81 80 81 81 80 78 77 77 77 76 76 75 74 72 70 70 70 69 68 68 69 71 71 71 73 73 72 72 72 72 71 71
82 81 80 80 79 79 80 80 80 81 81 81 81 82 84 84 84 84 84 84 84 83 82 79 75 71 68 65 62 60 59 57 56 55 56 60 66 70 77 84 90 94 98 98 96 96 95 93 91 88 87 85 83 83 83 83 83 83 83 82 80 79 79 79 78 78 76 74 72 70 71 71 69 68 68 68 69 69 70 70 69 70 70 70 70 71 71
76 75 75 75 75 75 75 75 76 77 78 79 80 81 83 84 85 85 85 86 86 85 83 80 76 73 69 66 63 60 59 57 55 55 57 59 64 70 77 84 89 94 97 95 93 91 90 90 89 88 86 85 84 84 85 85 85 85 85 85 83 81 81 80 79 78 77 74 72 72 72 71 70 69 70 69 69 69 71 70 69 69 69 69 70 70 70
71 70 70 71 70 70 71 71 72 73 74 75 76 78 80 83 84 85 85 86 86 85 83 80 76 74 70 66 64 62 61 59 57 57 59 60 64 71 77 83 88 92 93 91 89 88 87 88 88 85 84 84 84 85 86 86 86 87 87 87 86 84 82 81 80 79 77 75 74 73 73 72 72 72 70 70 69 69 70 70 70 70 69 70 71 71 70
66 66 66 66 66 66 66 67 68 68 69 71 71 73 76 79 81 83 84 85 86 84 82 79 77 74 71 67 66 64 63 61 60 60 61 62 66 72 78 82 87 89 89 87 85 84 85 87 87 85 83 83 85 85 86 86 87 88 89 88 86 85 84 82 82 81 79 77 76 75 73 73 74 73 72 71 72 72 72 72 73 74 73 73 74 72 70
62 62 62 62 62 62 62 63 64 64 65 66 67 68 71 74 77 79 81 83 83 82 80 79 77 75 72 69 67 66 64 63 62 62 62 64 67 73 78 81 85 88 87 85 84 84 84 85 87 86 84 85 86 86 86 87 87 87 89 89 87 87 86 84 83 82 79 78 77 77 77 77 77 77 76 75 76 75 74 74 76 77 76 75 75 73 72
58 58 58 58 59 59 59 59 60 61 61 62 63 64 66 70 72 74 77 79 80 80 79 78 76 75 72 70 69 68 66 65 64 63 63 65 69 73 77 81 84 86 86 85 84 84 83 85 86 86 85 85 87 87 87 89 87 84 86 88 88 88 88 85 83 82 80 79 79 79 80 80 80 79 78 78 77 76 74 76 79 79 77 76 76 76 74
55 55 54 55 55 55 55 55 56 57 58 59 59 60 63 65 67 69 72 74 77 78 77 76 76 74 72 71 70 69 67 66 65 64 64 66 69 72 76 80 82 83 85 85 84 83 83 83 85 85 85 85 86 86 86 89 87 84 84 87 88 89 88 85 83 82 81 81 81 81 81 81 80 79 79 78 77 76 77 79 81 80 78 77 77 77 76
51 51 52 52 52 52 52 52 53 54 55 55 56 57 59 61 63 65 67 70 73 75 75 75 74 74 73 72 71 70 68 67 66 65 66 68 70 71 73 77 79 80 82 83 84 82 81 82 83 84 84 84 85 86 86 87 88 87 86 86 87 88 87 85 83 83 82 82 81 81 81 82 81 80 79 79 78 78 79 81 81 80 79 77 77 76 76
48 48 49 49 49 49 49 49 50 51 52 52 53 54 56 58 59 62 64 66 70 72 71 71 72 73 73 73 72 71 70 68 68 67 69 71 71 71 72 74 76 77 79 81 82 82 81 81 84 84 83 83 85 84 81 82 86 88 87 86 84 84 84 84 84 83 82 81 81 81 81 81 80 79 79 79 79 80 80 80 80 79 78 76 76 76 75
45 45 46 46 46 46 46 47 47 48 49 50 50 52 54 55 57 59 61 64 67 68 67 68 71 72 73 72 72 72 70 69 70 70 71 73 73 74 75 74 73 74 77 80 82 82 82 83 84 85 83 83 85 82 75 74 80 84 85 84 82 80 79 80 81 82 82 82 82 81 81 79 78 78 78 79 80 81 80 78 78 79 78 77 76 76 75
42 42 43 43 43 44 44 44 45 46 47 48 48 50 52 54 55 57 59 62 64 64 64 66 69 71 72 72 72 71 71 71 71 72 74 75 76 77 78 77 75 74 77 80 81 81 83 85 85 85 83 82 82 80 74 72 75 78 79 79 79 78 78 79 79 80 81 82 81 79 78 77 76 76 77 78 79 80 79 76 75 76 77 77 76 74 73
39 39 40 41 41 41 41 42 43 44 45 46 47 49 51 52 53 56 57 59 62 61 62 65 69 70 71 72 71 71 71 71 73 74 76 77 78 78 78 79 78 77 78 79 79 79 82 85 84 84 83 82 81 78 74 71 72 73 74 75 76 76 75 75 77 79 78 78 76 75 75 75 75 75 75 74 75 76 76 75 73 73 73 72 70 68 65
36 37 38 38 39 39 39 40 41 42 43 44 46 48 50 51 52 54 55 57 59 60 61 65 68 69 70 70 71 71 72 72 74 77 78 79 78 76 77 79 80 80 80 79 78 78 80 81 82 81 80 80 81 79 77 75 73 72 72 73 74 74 73 72 74 74 73 72 72 72 72 73 73 73 73 73 73 74 75 74 72 69 66 65 63 62 61
34 34 35 36 36 36 37 38 39 40 42 43 44 46 48 49 50 51 53 55 58 58 60 64 66 67 69 71 73 74 75 75 77 80 81 81 78 75 77 79 79 78 79 78 76 76 76 76 77 76 75 75 77 77 77 78 77 75 73 72 72 73 73 72 72 71 70 71 71 70 70 71 71 71 72 72 73 73 73 71 69 62 54 51 52 55 59
32 32 33 34 34 34 36 37 38 39 40 42 43 45 47 47 48 50 52 55 56 57 59 63 66 68 71 74 76 78 79 79 81 82 83 82 80 77 76 77 75 75 76 76 74 73 74 73 72 72 70 70 70 70 71 73 75 75 75 74 73 73 73 72 71 71 71 70 69 69 69 70 70 71 72 73 72 71 68 65 63 58 52 49 50 53 58
30 30 31 32 32 33 34 35 36 37 39 40 42 44 45 46 47 49 52 54 56 57 60 64 67 70 73 75 78 79 79 80 83 83 83 83 81 78 76 75 74 73 74 74 72 72 71 70 70 69 68 68 67 68 68 68 70 71 72 71 71 71 71 71 71 72 72 72 71 70 70 70 71 72 73 73 73 71 68 64 59 53 51 52 55 58 62
28 28 30 30 30 32 33 34 35 36 38 39 41 43 44 45 47 50 52 54 56 57 60 65 68 70 73 76 79 79 80 82 83 84 83 83 81 78 76 74 73 73 73 72 71 70 69 68 67 67 67 68 68 68 68 66 66 67 67 67 67 68 69 70 69 70 71 72 72 73 72 72 72 74 74 74 74 73 72 68 62 56 53 55 59 61 63
26 27 28 29 29 31 32 33 34 36 37 39 41 42 44 45 48 50 52 54 55 56 60 65 68 71 74 77 80 81 81 82 84 84 83 82 80 78 76 74 74 74 74 73 71 69 68 67 65 64 65 66 67 68 68 66 67 67 66 65 66 67 67 68 68 68 69 70 71 72 72 71 72 73 74 74 74 74 72 69 67 63 60 59 61 64 65
25 26 27 28 29 30 32 33 34 35 37 39 41 43 44 45 47 49 51 53 54 57 62 66 70 72 75 78 81 82 81 82 84 84 83 82 80 77 75 74 74 74 74 73 71 69 67 65 63 62 63 64 66 67 66 65 67 68 66 65 65 66 66 66 66 67 68 69 70 70 70 69 70 73 75 75 75 74 72 68 67 67 66 64 65 68 69
23 25 26 27 28 30 31 32 33 35 37 39 41 42 43 45 47 49 51 53 55 58 63 68 71 74 76 79 82 82 81 82 84 85 83 82 80 77 75 74 74 74 74 73 71 70 68 65 62 62 63 64 66 67 66 65 66 67 66 66 66 67 67 66 66 66 66 67 68 68 68 68 69 72 75 77 77 76 74 70 67 68 71 72 74 75 75
23 24 25 26 28 29 30 31 33 36 38 40 41 42 43 45 48 50 52 54 57 61 65 69 72 74 77 80 83 82 81 81 83 84 83 82 81 78 75 73 72 72 71 71 70 69 67 64 61 61 63 64 64 65 65 65 65 64 64 64 64 64 64 64 64 64 65 65 66 67 67 69 70 73 75 77 77 77 77 75 73 72 74 77 80 82 83
22 24 25 26 28 29 30 32 34 36 38 40 41 42 43 45 48 50 52 54 58 61 66 70 72 74 77 80 83 83 81 80 81 83 83 82 80 78 76 73 72 71 69 68 68 67 65 62 60 61 62 62 63 63 62 62 62 61 61 60 60 59 59 60 61 63 64 65 67 69 70 72 74 76 77 77 78 78 77 78 77 77 78 79 81 83 85
22 23 24 26 27 29 30 32 34 36 38 39 40 41 43 45 48 50 53 56 59 62 66 70 72 75 78 81 83 83 81 80 80 80 81 80 79 78 77 75 73 71 70 69 67 66 64 62 61 62 63 63 63 63 62 61 59 58 57 57 56 56 57 58 61 63 65 68 70 72 74 76 76 77 78 79 79 80 79 79 79 79 80 82 84 86 87
21 22 24 25 27 28 30 32 34 36 37 39 40 41 43 46 49 51 54 57 60 64 68 70 73 75 79 82 82 81 80 79 78 78 78 77 76 76 76 76 74 72 70 69 67 66 64 63 62 63 64 63 63 62 59 56 53 53 55 55 54 56 57 59 62 65 69 72 73 74 75 74 73 74 75 77 79 80 81 82 82 83 83 84 86 87 89
21 22 23 25 26 28 30 32 34 35 37 38 39 41 44 47 49 52 54 58 61 65 68 71 73 76 79 82 81 80 79 78 77 76 75 75 75 74 74 74 74 73 71 69 68 66 65 63 63 63 62 61 60 58 55 52 52 53 54 53 53 55 59 61 65 68 71 72 72 72 71 71 71 72 73 75 77 79 80 81 82 84 85 86 87 88 89
21 22 23 24 26 28 30 31 33 34 36 37 39 42 45 47 50 53 56 59 62 65 68 70 73 76 79 81 81 80 79 78 76 74 73 73 73 73 72 72 72 72 70 69 68 67 65 65 64 63 60 58 57 55 54 53 53 53 52 52 53 56 59 62 65 67 67 67 67 67 68 70 71 73 74 75 76 77 78 80 81 83 85 87 88 88 88
20 22 23 25 26 28 30 32 34 35 36 37 40 42 45 48 50 53 56 59 63 65 68 71 74 77 79 80 80 79 79 77 76 74 73 72 72 71 71 70 70 70 69 69 69 68 67 66 64 61 58 57 55 54 53 52 52 51 50 50 52 54 56 59 61 62 62 62 63 65 67 69 70 72 73 73 74 75 76 77 78 80 82 83 85 85 85
20 22 24 25 27 29 31 33 34 35 36 38 40 43 45 48 51 54 57 60 63 66 69 72 75 77 78 79 79 78 77 76 76 75 74 72 71 70 69 69 69 69 68 69 69 69 68 65 62 59 57 55 53 52 51 50 50 50 50 50 50 51 52 53 54 55 56 57 59 61 63 65 67 69 70 70 71 72 72 72 73 74 75 76 77 78 79
21 22 24 26 28 30 31 32 34 35 37 40 42 44 46 48 51 54 57 60 63 66 69 72 74 77 78 78 78 77 76 75 75 75 75 74 72 71 70 69 69 69 69 69 70 69 68 64 61 58 56 54 53 52 51 50 50 51 52 52 51 49 48 47 47 49 50 52 54 56 58 61 64 66 67 69 70 71 71 71 72 72 73 74 75 76 76
22 23 25 26 28 30 31 33 34 36 38 40 43 45 47 49 52 55 58 60 63 66 68 71 74 76 76 75 75 76 76 75 74 74 74 73 73 73 72 71 70 70 70 70 71 69 67 63 60 58 56 54 53 53 53 53 53 53 53 51 49 47 45 43 44 45 46 48 50 52 54 57 59 62 64 66 69 71 73 74 74 75 76 77 78 79 80
23 24 25 26 28 30 31 33 35 36 38 41 43 46 48 51 53 55 58 61 63 66 68 71 74 75 75 74 74 75 74 74 74 73 73 72 72 73 73 73 72 71 71 71 70 68 65 62 60 58 56 55 55 56 56 56 56 54 52 49 47 45 44 44 44 44 45 46 47 49 50 52 54 55 57 60 62 65 67 69 71 72 73 75 76 77 78
23 24 26 27 29 30 32 33 35 37 39 42 44 46 48 51 54 56 59 61 64 67 68 70 73 75 75 74 73 74 75 75 74 73 72 72 72 72 71 71 71 72 72 71 69 66 64 62 61 59 59 59 59 60 59 58 56 54 51 49 47 46 46 46 46 45 45 46 46 47 48 48 49 50 52 53 55 56 57 59 60 62 63 64 65 66 66
23 25 26 28 29 30 32 34 36 38 39 41 43 45 47 50 52 55 58 60 63 65 68 71 74 76 75 74 73 74 74 75 74 74 73 72 71 69 68 68 69 70 70 69 67 65 64 63 62 61 61 62 62 61 59 57 55 53 51 50 49 49 49 48 47 47 46 47 47 47 48 48 48 49 50 50 51 51 53 54 55 56 58 59 60 61 61
23 24 26 27 29 30 32 33 35 36 37 39 41 43 46 48 50 52 55 58 60 63 67 70 74 75 74 73 73 73 74 73 73 74 74 73 70 68 66 67 68 69 68 66 65 65 64 63 63 64 64 63 62 60 58 56 54 54 53 54 53 53 51 50 49 48 48 49 49 49 49 50 50 51 51 52 52 53 55 56 57 58 59 60 62 62 63
23 24 25 26 28 29 30 31 32 34 35 37 40 42 45 47 49 51 53 56 59 63 65 69 72 74 74 73 72 72 72 73 73 73 73 72 71 70 70 70 70 69 67 65 64 64 64 65 66 65 64 62 60 58 57 56 56 56 57 57 56 54 53 52 51 51 51 51 51 52 52 53 53 54 55 55 55 56 58 59 60 61 62 63 64 65 66
21 22 23 25 26 27 28 30 31 33 36 38 40 43 44 47 49 52 54 56 59 62 65 67 70 71 72 72 72 71 71 72 72 72 72 72 73 73 74 73 72 68 65 63 62 63 65 65 65 63 61 60 59 58 58 58 59 59 59 58 57 57 56 55 55 55 55 55 55 55 55 56 56 57 57 58 58 59 61 62 63 64 65 67 69 70 71
20 21 23 24 26 27 29 30 31 33 35 37 39 42 44 46 49 52 54 56 58 61 63 66 68 70 71 71 72 72 72 73 72 72 73 73 74 73 73 72 70 68 66 65 65 65 65 64 62 60 59 58 59 59 60 60 59 59 59 59 59 58 58 57 57 57 57 57 57 57 58 58 59 60 61 62 63 64 66 67 68 69 71 72 74 75 76
19 21 23 24 26 28 29 30 32 33 35 36 38 41 43 45 48 50 51 52 55 57 60 63 66 68 70 71 72 72 72 72 72 72 73 72 71 70 69 68 68 68 68 68 68 67 66 64 63 62 61 61 61 61 60 60 60 60 60 60 60 59 59 59 60 60 60 60 61 61 62 63 63 64 65 67 68 70 71 72 73 74 75 76 78 79 81
19 20 22 23 24 26 29 30 32 34 35 37 39 41 43 45 47 47 48 49 52 55 58 60 63 66 68 69 69 70 70 70 71 71 71 70 68 66 65 65 66 67 68 69 68 67 66 65 65 65 64 64 63 63 62 62 61 61 61 61 61 61 62 62 63 63 64 64 65 66 67 68 68 69 70 71 72 73 74 75 76 77 79 80 81 83 85
20 21 21 22 23 25 27 28 30 32 33 35 38 40 42 45 47 47 47 47 49 52 56 59 60 62 64 65 66 67 68 69 69 68 67 66 65 64 64 64 66 67 67 67 66 65 65 65 65 65 64 64 64 64 64 64 65 65 65 65 65 65 66 66 67 68 68 69 70 71 71 72 73 73 74 74 75 76 77 78 79 80 82 83 85 87 89
20 21 21 22 23 24 26 27 28 30 32 33 35 38 41 43 45 47 47 47 48 50 53 56 59 60 62 64 64 64 65 65 65 65 65 65 64 64 63 63 64 65 66 66 65 65 65 65 65 64 64 64 64 64 65 65 66 67 68 68 68 69 69 70 70 71 72 72 73 73 74 74 74 75 75 76 77 78 79 80 82 84 85 87 89 90 90
Wind_Direction
293 293 292 292 292 292 291 290 288 285 281 276 272 269 267 265 263 263 263 262 262 261 259 256 251 246 241 236 233 232 231 232 233 230 228 227 226 226 227 227 227 227 228 228 228 230 230 230 230 231 231 231 230 231 233 235 235 235 235 236 237 238 238 240 242 241 241 242 242 243 246 247 248 249 251 252 253 255 256 257 257 257 258 259 259 260 260
293 292 292 292 291 290 289 287 284 281 278 273 269 266 264 262 261 260 260 261 261 260 258 255 251 247 242 236 234 233 231 233 233 230 227 226 225 225 225 226 226 227 227 227 227 228 229 230 230 230 230 230 230 230 231 234 236 235 235 236 237 239 239 240 242 242 242 242 243 245 248 250 250 250 251 253 254 254 256 257 258 259 261 261 260 259 259
293 292 291 290 289 288 286 283 281 278 274 270 267 263 261 260 259 259 258 258 258 257 256 253 250 247 242 237 235 233 232 234 234 230 226 225 224 223 224 225 226 226 228 228 228 228 228 229 230 229 229 228 229 231 231 233 235 236 235 236 237 238 238 240 242 243 243 244 245 247 249 251 251 250 249 251 253 254 255 256 258 259 260 261 260 258 258
292 291 290 289 287 285 283 280 277 274 271 267 264 261 258 257 257 256 254 254 253 254 255 254 251 248 243 239 238 235 233 235 234 230 227 225 224 222 222 223 225 226 228 228 228 228 228 228 229 229 229 227 227 229 231 232 235 237 236 237 238 238 238 239 242 243 242 242 243 243 245 247 249 250 249 248 249 251 252 253 255 257 258 259 260 260 260
291 290 288 286 284 282 280 277 274 271 268 265 261 259 257 255 254 254 252 251 251 252 254 254 252 249 243 240 239 236 234 236 234 230 227 224 223 222 220 221 223 224 226 228 228 227 227 228 229 229 229 228 227 228 229 231 234 237 238 238 239 239 239 240 242 243 242 242 242 242 243 245 247 249 250 250 250 251 252 254 256 257 259 260 261 262 263
290 288 286 284 282 279 277 274 271 268 265 263 260 257 255 253 252 252 251 250 250 251 253 252 252 249 245 242 241 237 235 235 233 229 226 223 221 221 219 219 221 221 223 226 227 226 226 227 228 228 229 229 229 229 229 229 231 233 236 239 240 240 240 241 242 244 244 243 242 243 244 245 246 247 250 252 253 254 256 257 259 260 261 261 262 263 263
288 286 284 281 279 277 274 272 268 265 262 260 258 255 253 251 251 250 250 249 248 249 251 251 250 249 246 243 241 237 235 236 233 229 226 223 220 220 219 218 219 220 221 223 225 225 225 226 228 228 227 229 230 230 229 230 231 232 234 237 239 240 241 242 243 244 245 244 244 244 245 246 247 248 249 250 253 255 258 259 260 261 261 262 262 263 263
286 283 281 279 276 274 271 269 266 262 259 257 255 253 251 250 249 249 249 248 248 247 249 250 249 248 246 243 241 238 237 238 236 231 228 225 221 219 219 219 219 220 220 222 224 224 223 224 226 227 227 227 229 231 230 231 232 232 233 235 237 239 240 241 243 244 245 246 246 245 246 247 248 248 249 250 252 254 256 257 258 258 259 260 262 263 264
283 281 278 276 273 271 268 266 263 260 257 254 252 250 249 247 247 247 247 247 247 246 247 248 248 247 245 243 241 240 239 239 238 234 231 228 223 219 219 219 220 221 221 222 223 224 224 224 224 225 226 226 228 230 231 231 233 233 234 236 237 238 239 239 241 243 245 247 247 247 247 248 249 250 250 251 252 253 253 254 255 256 258 260 262 264 265
280 278 275 273 270 268 265 263 260 257 254 251 249 248 246 245 244 244 244 245 245 245 245 246 246 246 244 243 241 240 238 238 236 234 232 230 225 220 219 220 220 221 222 222 223 224 224 224 224 224 226 226 226 228 230 231 232 234 235 237 238 239 239 240 240 242 243 245 246 247 248 249 249 250 251 252 253 253 253 254 255 257 258 259 260 262 262
277 275 272 270 268 265 263 260 258 255 253 250 247 245 245 244 242 242 242 242 243 243 244 244 244 244 243 242 241 240 238 237 235 232 231 229 225 220 219 220 219 220 223 223 224 225 225 225 225 224 226 227 227 228 229 230 231 233 235 236 237 238 240 241 242 243 243 245 246 247 249 249 250 252 253 254 255 256 256 257 259 260 260 260 260 261 261
275 272 270 268 265 263 261 259 256 254 252 249 246 243 243 242 241 240 240 241 241 241 242 243 243 243 242 241 240 239 239 237 235 233 231 229 225 219 217 219 219 220 222 223 224 225 226 227 226 225 226 227 227 228 229 230 231 232 234 235 236 237 239 241 242 243 245 246 247 248 249 251 252 253 254 255 256 258 259 259 260 261 261 261 262 261 261
273 270 268 266 264 262 260 257 255 253 251 249 246 243 241 241 240 239 238 239 239 240 240 241 241 241 241 240 239 238 238 236 235 233 232 229 225 219 216 217 218 220 222 222 223 225 226 227 228 227 227 227 228 229 230 231 231 232 233 235 235 236 238 240 242 244 245 246 247 248 250 252 253 254 254 256 257 258 259 260 260 261 261 261 261 261 262
271 269 266 264 262 260 258 256 254 252 250 248 245 243 241 240 239 238 238 238 238 239 239 240 240 239 239 238 236 236 235 233 231 230 229 226 223 219 216 215 217 220 221 222 222 224 226 226 227 227 228 229 229 230 230 231 232 233 233 234 235 235 237 239 242 244 246 247 248 249 251 253 254 254 255 257 257 258 260 261 261 261 261 261 261 261 262
270 267 265 263 261 259 257 255 253 251 249 247 245 242 240 239 238 237 237 236 237 238 238 238 238 237 236 235 234 233 232 231 228 227 226 224 220 217 215 214 216 218 219 220 221 223 225 226 226 225 226 227 229 230 230 231 232 233 234 234 235 236 236 237 240 242 244 246 247 248 249 251 252 253 254 255 255 256 257 259 260 260 260 261 261 262 263
268 266 264 262 259 257 255 253 252 250 248 246 244 241 239 238 237 236 235 235 236 236 236 236 235 235 233 231 231 230 229 228 227 224 223 221 218 216 214 213 214 216 217 217 219 221 223 225 226 225 224 225 227 228 229 230 231 233 235 235 234 235 235 235 237 239 242 243 245 247 247 248 250 251 252 253 254 256 258 259 261 262 262 263 264 265 266
267 265 262 260 258 256 254 251 250 248 246 245 243 240 238 237 236 235 234 234 234 234 234 233 233 232 230 228 227 227 226 225 224 223 221 219 217 215 214 213 213 214 214 215 216 219 221 224 225 225 224 225 226 227 228 230 229 231 235 236 235 236 236 236 236 238 239 241 244 245 246 248 249 251 253 254 256 258 259 259 260 262 263 264 265 267 267
265 263 260 258 256 254 252 250 248 246 244 242 241 238 237 236 234 233 232 232 232 232 231 230 229 228 227 225 224 224 223 222 221 220 217 216 216 214 213 213 212 213 213 214 214 216 219 222 224 225 224 225 226 227 228 230 229 229 232 235 236 237 238 237 237 238 239 240 242 244 246 248 250 251 253 255 257 258 258 258 260 262 263 264 266 268 269
264 261 258 256 254 252 250 248 246 244 242 240 238 236 235 234 232 231 230 229 229 230 229 228 226 225 223 222 221 221 220 218 218 216 213 212 212 211 212 213 212 212 213 214 214 215 217 220 222 223 224 224 226 226 228 230 230 229 230 234 236 238 239 239 238 239 239 241 243 244 246 248 249 251 253 254 256 256 257 259 261 263 264 265 266 268 269
262 259 256 254 252 250 248 245 243 242 240 238 236 234 232 231 230 229 228 227 227 227 226 225 224 222 221 219 218 217 216 214 213 212 209 209 209 207 208 210 211 211 212 213 213 214 216 218 220 221 221 223 224 225 227 230 231 231 231 233 235 238 240 241 241 240 240 241 243 244 245 247 249 250 252 253 254 255 257 259 261 263 264 265 265 266 267
260 257 254 251 250 248 245 243 241 239 237 235 233 231 230 228 227 226 225 224 225 225 223 221 221 219 218 217 215 214 213 211 209 208 206 206 206 204 204 206 207 209 211 213 213 213 214 217 219 219 220 221 223 224 226 229 232 233 233 233 234 236 238 240 241 242 242 242 242 244 245 247 249 250 251 252 254 255 257 258 260 261 262 262 263 265 266
257 254 251 249 247 245 242 240 238 236 234 232 230 228 227 226 224 223 223 222 222 222 219 217 217 216 215 214 213 212 210 208 206 204 203 203 204 204 204 204 204 206 209 211 212 213 215 217 218 219 219 221 222 222 224 228 231 233 235 235 235 236 237 238 240 242 243 244 244 245 247 247 248 249 250 251 253 255 256 257 258 260 262 263 265 267 268
255 251 249 247 245 242 239 237 235 233 231 229 227 225 224 223 221 221 220 220 220 218 215 214 214 213 212 211 210 209 208 205 203 202 201 202 203 204 205 204 203 205 208 210 211 212 215 217 218 219 220 221 222 222 222 225 228 230 232 235 236 236 237 238 239 241 243 245 246 246 247 247 247 248 248 249 251 253 254 255 257 259 262 264 267 268 268
252 249 247 244 242 239 237 234 232 230 228 226 223 222 221 220 219 218 217 217 217 216 212 211 212 210 209 208 206 206 205 203 200 200 200 201 202 203 204 205 206 206 208 209 210 212 215 217 219 220 221 223 224 224 223 224 226 227 229 232 234 235 236 237 239 240 242 243 244 244 245 245 246 247 247 247 248 250 252 254 256 259 264 267 267 266 263
250 247 244 242 239 236 234 231 229 227 225 223 221 219 219 218 216 215 215 214 215 213 209 209 209 207 205 204 202 202 201 199 198 198 200 201 201 201 204 207 208 209 210 211 211 212 215 217 219 220 221 223 225 226 226 227 227 227 228 229 232 233 235 237 239 240 240 241 241 242 243 244 245 245 246 247 248 249 252 254 255 258 261 261 259 259 260
247 244 242 239 236 232 230 228 226 224 222 220 217 216 216 215 213 212 211 212 211 209 206 206 206 203 202 201 200 200 199 197 196 197 199 200 200 200 204 207 208 209 212 212 212 213 215 217 218 219 219 221 224 226 227 229 229 228 228 229 230 232 234 235 237 238 238 239 239 240 241 242 242 244 245 246 247 249 250 252 254 254 253 252 254 257 258
244 241 238 236 232 228 226 224 222 220 218 216 214 213 213 211 209 208 208 209 208 205 203 203 203 201 200 200 199 200 199 196 195 196 199 200 200 200 202 205 207 209 212 213 213 214 216 217 218 219 218 219 222 224 226 228 229 230 230 230 231 233 235 235 236 237 237 237 237 237 238 239 240 242 244 246 247 247 248 249 250 251 250 251 253 255 255
240 237 234 231 227 224 222 220 217 215 214 212 211 210 209 207 205 206 206 206 205 203 200 200 201 200 199 198 198 199 197 195 195 196 198 200 200 199 201 204 205 207 210 212 213 214 216 216 217 218 218 219 221 223 225 226 229 230 231 231 231 233 234 235 235 236 237 238 238 237 237 237 239 241 243 245 246 247 248 247 245 242 240 241 245 249 251
235 232 229 226 222 220 218 216 213 211 210 209 207 206 205 203 203 203 204 204 202 200 198 198 199 198 197 197 197 197 197 195 194 196 198 199 200 199 200 202 204 206 209 211 212 214 216 216 215 217 218 219 221 223 225 225 227 229 230 231 232 233 234 235 235 235 236 237 238 239 239 239 239 241 243 245 246 247 247 247 244 239 236 236 239 243 247
229 226 224 221 218 215 213 211 209 207 205 205 204 203 202 201 201 201 202 201 199 197 196 197 197 197 196 196 196 197 196 194 194 196 197 199 199 198 198 200 204 206 208 210 211 212 215 215 215 216 218 220 221 223 224 225 227 229 229 230 231 233 233 234 235 236 237 238 238 239 240 240 239 240 241 243 245 245 245 245 243 239 236 236 238 241 244
225 222 219 216 213 211 209 207 204 203 202 201 201 200 199 198 199 200 199 198 197 195 195 195 196 196 195 194 195 196 196 194 194 196 197 199 200 198 197 199 203 206 208 209 210 212 214 214 214 216 218 220 222 223 224 224 227 229 230 230 231 233 233 234 235 236 238 239 240 241 241 241 241 241 241 243 244 244 244 243 243 241 240 240 241 243 245
220 217 215 212 209 207 205 203 201 200 199 199 199 198 197 197 198 198 197 196 195 193 194 195 195 195 195 194 194 196 196 194 194 196 198 200 201 200 199 200 203 205 207 209 210 212 213 213 213 214 217 219 222 223 224 224 226 228 230 231 232 234 236 237 237 238 239 240 241 242 242 242 242 241 241 242 243 244 245 244 243 243 243 244 245 246 247
216 214 211 208 205 203 201 199 198 197 197 197 197 196 195 196 196 196 195 194 193 193 193 194 195 194 194 193 194 196 196 195 195 197 198 201 203 202 201 202 204 206 207 208 209 211 212 212 212 215 218 220 222 224 225 225 227 229 231 233 234 236 238 239 239 239 239 239 240 240 240 239 239 240 240 241 243 244 246 247 246 245 245 245 246 247 249
211 210 208 205 202 200 198 196 195 195 196 196 196 195 194 194 194 194 193 192 192 192 193 194 194 194 193 193 194 195 196 196 196 197 199 200 203 204 203 204 206 207 207 208 209 211 212 212 213 217 220 221 223 225 226 227 229 231 234 235 237 238 239 239 239 239 239 239 238 238 238 238 238 239 241 242 244 245 246 247 248 248 247 246 246 247 249
207 206 205 202 199 197 196 193 193 194 194 195 194 193 192 193 192 192 191 191 191 192 192 193 194 193 192 193 194 195 196 196 197 198 199 200 202 204 204 205 207 209 209 210 211 212 213 213 215 218 221 223 224 226 227 228 230 233 235 236 236 237 238 239 239 239 238 238 238 238 239 240 241 241 242 243 244 246 246 247 247 248 248 248 249 250 251
203 201 200 198 196 194 193 192 191 192 192 193 192 192 191 191 191 191 190 190 191 191 192 193 193 193 192 193 195 195 196 197 198 199 200 200 202 204 204 205 208 210 210 211 212 213 213 215 216 219 222 224 225 227 227 228 229 231 233 234 234 235 236 237 238 238 238 239 239 240 241 242 243 244 244 244 244 245 246 247 247 248 249 250 251 252 253
199 197 196 194 192 191 190 189 189 190 191 191 191 191 191 190 190 190 190 189 190 191 192 192 193 193 193 194 194 195 196 197 199 200 201 201 202 203 204 205 208 210 211 212 213 213 214 215 217 218 221 224 226 227 227 227 228 230 232 234 234 234 236 236 238 239 241 242 243 243 243 243 243 244 244 245 245 246 247 248 248 249 249 250 251 253 255
194 193 191 189 188 187 187 187 187 188 189 190 190 190 190 189 189 189 189 189 190 191 191 192 193 193 194 194 195 195 196 197 198 201 203 203 203 203 204 205 208 210 212 213 214 215 215 215 217 218 221 224 227 229 230 230 230 230 232 235 236 237 238 239 241 242 243 244 244 244 244 244 244 245 245 246 246 247 248 249 249 249 250 251 252 254 255
189 188 186 185 184 185 185 186 186 187 187 187 189 189 189 189 188 188 189 189 190 190 191 192 193 193 194 195 195 195 196 198 199 200 202 203 203 204 205 207 208 210 212 214 216 216 217 217 218 219 221 224 228 230 232 233 233 232 232 233 235 237 239 241 243 245 246 246 246 246 246 246 246 246 247 247 248 248 249 250 250 250 250 251 252 254 255
184 183 183 182 182 183 184 185 185 186 186 186 187 188 188 188 188 188 189 189 190 191 192 192 193 193 195 196 195 195 196 198 200 201 202 203 203 204 205 207 209 210 212 214 216 218 219 219 219 220 222 224 227 229 232 233 233 233 232 232 233 234 237 240 243 245 247 248 248 247 247 247 247 247 247 248 248 249 250 250 250 250 251 251 252 253 255
180 181 181 181 181 182 183 184 184 185 185 185 186 186 187 187 188 188 188 189 190 191 192 192 193 194 196 196 196 196 197 199 201 202 203 204 205 205 205 206 208 210 212 215 217 218 219 220 220 221 222 224 227 230 232 232 234 234 235 235 235 236 237 239 241 243 245 246 247 247 248 248 248 249 249 249 249 250 251 252 253 253 254 254 255 256 257
177 178 178 179 180 181 182 183 183 184 185 185 185 186 186 186 187 188 188 189 190 191 192 193 193 194 196 197 196 196 198 200 202 203 204 205 207 207 207 207 208 210 212 215 217 218 219 220 222 222 223 224 227 229 231 232 234 236 238 239 239 239 239 239 240 241 242 244 245 246 247 248 249 250 251 252 252 253 254 255 256 257 258 259 259 260 261
176 176 176 177 179 181 182 183 183 184 184 185 186 186 186 186 187 188 189 189 190 191 192 193 193 195 197 197 197 197 198 200 202 203 204 206 208 209 209 209 210 211 213 215 216 218 219 221 222 223 224 225 226 228 230 232 235 237 239 240 241 241 242 242 242 243 243 245 246 247 248 250 251 252 252 253 254 255 256 258 259 260 261 262 262 263 264
175 176 177 177 178 180 182 183 184 184 185 185 186 186 187 188 188 189 189 190 190 191 192 192 194 196 197 198 198 198 199 200 201 202 204 206 209 210 211 212 213 214 215 216 217 218 220 221 222 223 224 226 227 229 231 234 236 239 241 243 243 243 243 244 245 246 247 247 248 249 250 252 252 253 254 256 257 258 259 260 261 262 263 264 265 265 266
174 176 176 177 178 180 182 183 184 184 184 185 185 185 186 188 189 190 190 190 190 192 192 193 195 197 198 199 199 199 200 202 203 204 205 207 208 209 211 214 216 217 216 216 218 220 221 223 223 224 226 227 229 231 233 235 237 240 242 243 244 245 246 247 248 248 249 250 251 252 253 254 255 255 256 257 258 259 260 261 262 263 264 265 266 267 268
174 175 176 176 178 179 181 182 182 182 183 183 184 186 186 187 188 190 191 191 191 192 194 195 196 197 199 200 201 201 202 203 205 207 208 209 209 210 212 215 218 219 218 218 219 221 223 224 225 226 227 229 231 233 234 236 238 240 242 243 245 247 249 249 250 250 251 252 253 253 254 255 256 257 258 259 259 260 262 263 264 266 267 268 270 271 272
171 172 173 174 176 177 178 179 180 181 182 183 184 185 187 187 187 189 191 192 192 193 195 196 197 198 199 201 202 203 204 205 206 208 210 211 212 213 214 216 219 220 221 221 222 224 226 228 229 230 231 232 233 235 236 237 239 240 242 245 247 248 250 251 251 252 253 254 254 255 256 257 258 260 262 263 264 266 267 268 269 271 272 273 274 275 275
166 168 169 172 173 174 175 178 179 180 182 183 184 185 186 187 188 190 192 192 193 194 195 196 197 199 201 202 203 204 205 206 207 209 211 213 214 216 217 219 220 221 222 223 225 227 229 231 233 234 236 236 237 238 239 240 241 243 245 247 248 249 251 252 253 254 256 256 258 259 260 261 263 264 266 267 268 269 270 271 272 273 274 274 275 276 276
162 164 167 170 172 172 173 176 178 180 182 183 184 185 186 187 190 193 194 193 193 195 197 197 198 200 202 203 205 206 206 207 209 210 212 214 216 218 220 221 222 223 224 225 227 229 231 234 236 237 239 239 240 241 242 243 244 245 247 248 250 251 253 254 256 257 258 260 261 262 263 264 265 266 267 268 269 270 271 272 273 273 274 275 276 276 277
157 161 165 168 170 171 173 175 177 180 181 183 184 185 186 187 190 194 196 195 193 194 197 199 201 202 203 205 206 207 208 210 211 212 213 215 216 218 220 222 223 224 226 227 229 230 232 234 235 237 238 240 241 242 244 245 246 247 248 250 251 252 254 255 257 258 259 261 262 263 264 266 267 268 269 270 271 271 272 273 274 275 276 277 278 278 279
153 157 162 165 167 170 172 175 177 179 181 183 184 185 186 188 190 193 196 197 195 194 196 199 202 204 205 207 208 209 210 211 213 214 215 216 217 219 221 222 224 225 227 228 230 231 233 234 235 236 238 240 241 243 244 245 246 248 249 250 251 253 254 256 257 259 260 262 263 265 266 267 268 269 270 271 272 273 274 275 276 277 278 279 279 280 281
150 153 157 161 164 167 170 173 176 179 182 183 184 185 187 189 190 192 195 198 197 196 196 199 202 204 207 208 209 210 211 213 214 215 216 217 218 220 221 223 224 226 228 230 231 233 234 236 237 238 240 241 242 244 245 246 247 249 250 251 252 254 255 257 258 260 261 263 264 265 267 268 269 270 271 272 273 274 275 276 277 278 279 280 281 281 282
Height
10682 10681 10680 10679 10678 10677 10677 10676 10675 10673 10671 10673 10674 10672 10669 10667 10669 10672 10674 10677 10680 10683 10687 10690 10694 10698 10700 10703 10708 10711 10713 10715 10716 10722 10730 10739 10747 10754 10760 10768 10776 10782 10787 10790 10794 10799 10806 10814 10821 10828 10838 10845 10850 10850 10848 10847 10850 10858 10865 10870 10872 10872 10876 10880 10881 10887 10894 10898 10901 10900 10899 10903 10909 10912 10914 10916 10917 10918 10918 10918 10918 10919 10923 10927 10932 10934 10936
10669 10668 10666 10665 10664 10664 10663 10663 10663 10661 10658 10659 10661 10661 10658 10655 10657 10662 10665 10668 10671 10674 10675 10677 10681 10686 10689 10693 10697 10698 10702 10704 10706 10713 10721 10727 10735 10742 10749 10757 10764 10769 10772 10776 10783 10789 10797 10806 10813 10821 10829 10835 10837 10839 10839 10836 10839 10850 10858 10862 10862 10863 10870 10875 10872 10877 10887 10891 10895 10896 10894 10898 10905 10908 10909 10909 10910 10912 10911 10909 10910 10913 10916 10920 10925 10928 10929
10654 10653 10652 10651 10649 10649 10649 10649 10650 10649 10646 10646 10649 10649 10647 10644 10645 10652 10657 10659 10661 10661 10660 10663 10669 10673 10677 10683 10686 10689 10693 10694 10696 10703 10710 10716 10722 10730 10739 10747 10752 10757 10761 10767 10775 10782 10789 10798 10804 10810 10816 10822 10825 10827 10829 10829 10832 10843 10851 10852 10852 10856 10864 10866 10863 10870 10882 10888 10892 10894 10891 10891 10895 10900 10903 10903 10903 10904 10904 10901 10903 10907 10909 10911 10915 10920 10921
10638 10637 10636 10635 10633 10633 10633 10633 10635 10636 10633 10632 10636 10637 10636 10634 10635 10641 10646 10648 10649 10649 10648 10653 10659 10663 10668 10674 10676 10679 10682 10683 10685 10693 10700 10707 10712 10720 10729 10734 10740 10747 10752 10758 10766 10774 10782 10789 10793 10798 10802 10808 10813 10814 10818 10825 10830 10837 10843 10842 10843 10849 10855 10857 10857 10864 10875 10880 10884 10885 10883 10882 10884 10888 10892 10895 10896 10895 10894 10893 10897 10901 10902 10903 10906 10911 10915
10620 10619 10618 10617 10616 10616 10617 10617 10619 10622 10620 10619 10622 10624 10623 10623 10624 10628 10633 10636 10638 10639 10639 10643 10648 10652 10658 10663 10664 10668 10671 10671 10675 10683 10690 10696 10701 10708 10716 10721 10729 10738 10742 10745 10754 10764 10772 10778 10782 10785 10790 10797 10803 10806 10814 10823 10828 10830 10832 10832 10834 10840 10846 10850 10852 10857 10865 10871 10873 10874 10875 10877 10878 10879 10881 10884 10886 10886 10885 10887 10892 10894 10894 10896 10899 10903 10908
10600 10599 10598 10598 10598 10598 10599 10599 10602 10606 10606 10604 10608 10611 10611 10610 10612 10615 10620 10625 10629 10629 10628 10632 10637 10641 10646 10651 10653 10657 10660 10661 10666 10672 10676 10681 10687 10693 10702 10709 10716 10723 10727 10732 10741 10751 10760 10765 10768 10772 10782 10790 10796 10803 10811 10815 10818 10821 10821 10822 10827 10833 10839 10844 10847 10850 10855 10860 10863 10867 10870 10871 10873 10875 10875 10875 10876 10877 10879 10882 10885 10885 10886 10889 10891 10896 10902
10579 10578 10578 10578 10578 10579 10580 10581 10583 10588 10591 10590 10592 10596 10596 10597 10600 10603 10607 10613 10617 10618 10616 10620 10626 10630 10634 10639 10642 10646 10651 10653 10655 10659 10663 10668 10674 10681 10690 10696 10699 10706 10713 10718 10726 10737 10746 10752 10755 10763 10776 10786 10791 10798 10805 10807 10810 10814 10814 10816 10821 10826 10832 10838 10842 10843 10844 10848 10855 10861 10863 10864 10867 10870 10870 10868 10869 10872 10874 10875 10877 10877 10878 10879 10882 10888 10896
10557 10556 10556 10556 10557 10558 10560 10562 10563 10567 10573 10575 10576 10579 10581 10584 10587 10590 10594 10599 10603 10605 10605 10608 10615 10618 10622 10629 10635 10640 10644 10645 10646 10652 10657 10661 10666 10674 10681 10686 10691 10699 10706 10710 10714 10722 10732 10739 10745 10756 10770 10779 10784 10790 10797 10800 10803 10807 10808 10808 10812 10818 10826 10832 10834 10834 10835 10839 10847 10852 10855 10857 10859 10862 10862 10863 10866 10868 10868 10868 10867 10867 10869 10872 10874 10881 10889
10534 10534 10534 10534 10535 10536 10539 10541 10543 10546 10553 10557 10560 10561 10564 10569 10572 10576 10581 10584 10587 10592 10594 10597 10603 10607 10612 10621 10627 10630 10633 10635 10639 10647 10653 10656 10661 10670 10675 10681 10689 10695 10698 10702 10704 10710 10720 10729 10739 10751 10762 10771 10777 10782 10788 10794 10797 10801 10801 10801 10805 10813 10820 10823 10825 10826 10828 10832 10839 10844 10848 10850 10852 10854 10855 10857 10860 10861 10860 10859 10859 10859 10863 10867 10870 10875 10882
10511 10510 10510 10511 10512 10514 10517 10520 10522 10526 10531 10538 10542 10544 10547 10553 10557 10561 10566 10570 10573 10577 10581 10585 10591 10597 10603 10611 10615 10617 10621 10625 10630 10636 10642 10647 10655 10665 10672 10676 10682 10686 10687 10690 10694 10701 10713 10723 10734 10746 10754 10762 10770 10775 10780 10786 10790 10793 10794 10794 10801 10809 10811 10813 10816 10818 10821 10825 10830 10836 10840 10842 10844 10846 10848 10849 10850 10851 10851 10851 10853 10856 10859 10862 10865 10869 10873
10488 10488 10488 10489 10491 10493 10495 10499 10502 10505 10510 10517 10524 10527 10530 10535 10541 10546 10551 10554 10558 10563 10567 10573 10580 10586 10592 10599 10603 10607 10612 10617 10621 10627 10633 10638 10645 10656 10664 10667 10672 10675 10675 10678 10686 10697 10708 10718 10730 10741 10748 10755 10763 10768 10773 10778 10782 10785 10786 10788 10795 10800 10801 10804 10807 10810 10813 10817 10823 10828 10830 10831 10835 10838 10841 10841 10840 10842 10844 10844 10847 10850 10852 10855 10858 10862 10864
10467 10467 10468 10469 10471 10473 10475 10479 10482 10486 10491 10497 10504 10510 10513 10518 10525 10531 10535 10539 10543 10549 10553 10560 10569 10576 10581 10588 10594 10600 10605 10611 10617 10623 10627 10630 10636 10647 10653 10656 10661 10663 10664 10672 10685 10696 10705 10715 10725 10736 10742 10748 10755 10761 10765 10769 10772 10776 10777 10780 10787 10792 10793 10795 10799 10802 10806 10811 10818 10820 10820 10823 10828 10831 10832 10833 10832 10833 10835 10837 10840 10842 10843 10846 10850 10853 10855
10448 10449 10449 10450 10453 10455 10457 10461 10464 10468 10473 10478 10486 10493 10497 10502 10508 10514 10520 10524 10528 10535 10541 10549 10558 10565 10570 10578 10586 10592 10597 10603 10610 10615 10617 10620 10628 10637 10643 10648 10652 10654 10660 10672 10684 10693 10702 10710 10719 10728 10735 10742 10748 10752 10754 10758 10762 10766 10768 10771 10778 10784 10786 10788 10792 10796 10801 10807 10811 10812 10813 10817 10820 10822 10822 10824 10825 10825 10825 10827 10831 10833 10834 10838 10841 10844 10847
10431 10432 10433 10434 10436 10439 10441 10444 10448 10452 10456 10461 10469 10476 10481 10487 10492 10499 10505 10509 10514 10521 10530 10538 10547 10554 10560 10569 10576 10582 10587 10592 10598 10602 10604 10609 10618 10626 10633 10640 10645 10650 10660 10672 10682 10689 10696 10702 10711 10721 10728 10735 10740 10741 10744 10748 10752 10755 10757 10761 10767 10774 10780 10783 10786 10789 10795 10800 10802 10805 10808 10810 10810 10811 10814 10816 10817 10818 10818 10819 10821 10823 10825 10828 10831 10835 10839
10415 10416 10417 10419 10421 10423 10427 10430 10433 10437 10442 10446 10453 10460 10466 10472 10477 10484 10491 10495 10500 10509 10519 10527 10534 10542 10549 10558 10565 10571 10577 10581 10585 10590 10593 10599 10608 10615 10622 10631 10637 10643 10654 10667 10676 10682 10687 10693 10702 10711 10718 10723 10727 10729 10733 10738 10742 10743 10745 10750 10757 10764 10771 10776 10777 10780 10786 10791 10793 10797 10800 10801 10800 10802 10806 10808 10809 10810 10811 10810 10810 10813 10817 10819 10821 10826 10831
10401 10402 10403 10405 10407 10409 10413 10416 10420 10424 10428 10433 10439 10446 10452 10457 10463 10470 10477 10482 10489 10498 10507 10514 10522 10530 10538 10547 10554 10560 10566 10571 10575 10580 10584 10591 10598 10604 10612 10620 10626 10633 10646 10658 10667 10672 10677 10683 10690 10698 10706 10710 10714 10719 10722 10726 10732 10735 10734 10739 10748 10753 10759 10766 10770 10774 10779 10783 10785 10788 10790 10791 10791 10794 10797 10800 10800 10802 10806 10804 10800 10802 10808 10810 10813 10817 10821
10387 10389 10391 10392 10394 10397 10400 10404 10407 10411 10416 10420 10426 10433 10439 10443 10450 10457 10464 10471 10478 10486 10493 10501 10509 10518 10526 10535 10541 10548 10555 10560 10565 10571 10577 10582 10589 10595 10603 10610 10617 10625 10637 10647 10655 10662 10669 10673 10678 10687 10696 10699 10703 10709 10711 10714 10723 10729 10726 10728 10737 10742 10749 10758 10764 10768 10774 10776 10777 10779 10780 10781 10785 10788 10789 10792 10794 10797 10801 10796 10790 10794 10801 10802 10804 10807 10810
10375 10377 10379 10381 10383 10385 10389 10393 10396 10400 10404 10409 10415 10421 10427 10432 10439 10446 10453 10459 10466 10472 10479 10488 10497 10505 10514 10523 10530 10537 10545 10550 10555 10563 10569 10575 10580 10588 10596 10603 10611 10620 10628 10636 10644 10652 10658 10663 10669 10677 10685 10689 10693 10698 10700 10703 10713 10720 10719 10720 10727 10733 10741 10751 10757 10761 10766 10768 10769 10771 10773 10775 10780 10783 10784 10786 10790 10792 10791 10785 10783 10789 10794 10795 10797 10798 10800
10363 10365 10367 10370 10372 10375 10378 10382 10386 10390 10394 10399 10405 10411 10416 10422 10428 10435 10441 10448 10453 10458 10466 10476 10485 10493 10501 10510 10518 10526 10534 10540 10546 10554 10561 10566 10572 10581 10590 10598 10606 10613 10620 10628 10636 10643 10648 10653 10658 10665 10674 10678 10681 10686 10690 10693 10701 10710 10713 10715 10720 10726 10733 10741 10748 10753 10758 10761 10764 10766 10766 10769 10774 10778 10779 10781 10783 10781 10779 10778 10779 10783 10786 10788 10790 10790 10791
10353 10355 10357 10359 10362 10365 10369 10373 10376 10380 10385 10389 10395 10401 10406 10412 10418 10424 10431 10437 10441 10446 10456 10467 10475 10482 10489 10498 10506 10515 10523 10531 10538 10545 10552 10558 10565 10574 10582 10591 10599 10607 10613 10620 10627 10633 10638 10642 10646 10653 10662 10666 10670 10676 10683 10687 10692 10700 10706 10711 10716 10720 10725 10731 10737 10744 10751 10755 10757 10758 10759 10762 10768 10771 10773 10774 10773 10770 10771 10774 10775 10776 10778 10780 10781 10781 10783
10343 10345 10347 10350 10353 10356 10360 10364 10368 10372 10376 10381 10387 10392 10397 10403 10408 10414 10421 10426 10429 10436 10448 10458 10464 10471 10479 10489 10497 10506 10514 10522 10529 10537 10544 10550 10557 10565 10572 10581 10590 10598 10603 10609 10616 10623 10628 10630 10634 10644 10652 10658 10664 10672 10680 10684 10687 10692 10699 10706 10712 10715 10718 10722 10728 10735 10741 10745 10748 10751 10754 10757 10762 10764 10765 10766 10765 10764 10767 10769 10767 10767 10769 10769 10770 10773 10775
10334 10336 10339 10341 10344 10348 10352 10356 10360 10363 10368 10373 10378 10384 10388 10393 10400 10405 10410 10416 10420 10429 10440 10448 10453 10461 10471 10480 10490 10498 10507 10515 10523 10530 10537 10543 10550 10557 10565 10572 10580 10586 10592 10599 10607 10614 10619 10622 10628 10637 10645 10651 10658 10668 10676 10680 10683 10687 10693 10700 10706 10709 10712 10716 10720 10725 10730 10734 10739 10744 10748 10750 10753 10755 10756 10758 10757 10757 10760 10762 10760 10760 10761 10762 10764 10766 10767
10326 10328 10331 10333 10337 10340 10344 10348 10352 10356 10360 10365 10370 10375 10379 10385 10391 10396 10402 10408 10413 10422 10432 10438 10444 10452 10462 10473 10483 10493 10501 10509 10517 10524 10530 10537 10544 10553 10561 10567 10572 10577 10584 10591 10599 10606 10610 10615 10623 10631 10638 10645 10652 10661 10669 10672 10676 10682 10687 10691 10696 10701 10705 10709 10713 10717 10722 10726 10732 10736 10738 10740 10742 10744 10746 10748 10749 10750 10752 10754 10754 10755 10756 10757 10759 10760 10761
10318 10321 10323 10326 10330 10333 10337 10341 10345 10349 10353 10358 10363 10367 10372 10378 10384 10389 10395 10401 10407 10415 10424 10430 10436 10446 10458 10469 10479 10488 10497 10505 10512 10518 10524 10531 10540 10550 10556 10560 10566 10572 10578 10585 10592 10599 10604 10611 10619 10627 10634 10640 10646 10653 10660 10664 10669 10675 10680 10683 10687 10692 10697 10700 10704 10710 10715 10718 10722 10726 10728 10730 10733 10734 10736 10739 10740 10741 10743 10746 10748 10751 10753 10755 10755 10755 10755
10312 10314 10317 10319 10323 10327 10331 10334 10338 10343 10347 10351 10356 10361 10366 10371 10378 10384 10390 10395 10400 10409 10418 10424 10432 10443 10454 10463 10471 10479 10487 10496 10503 10510 10517 10525 10535 10545 10550 10555 10562 10568 10573 10580 10587 10593 10600 10608 10616 10623 10630 10636 10639 10645 10652 10656 10661 10667 10672 10675 10678 10683 10688 10693 10697 10701 10706 10709 10713 10717 10719 10721 10723 10725 10726 10729 10731 10733 10736 10740 10744 10748 10750 10750 10749 10749 10749
10306 10308 10311 10314 10317 10321 10324 10328 10332 10336 10341 10345 10350 10355 10360 10366 10373 10379 10384 10389 10395 10404 10412 10419 10428 10437 10445 10452 10459 10467 10475 10484 10493 10501 10510 10518 10529 10538 10544 10551 10559 10565 10570 10576 10583 10588 10595 10603 10611 10618 10626 10631 10634 10639 10645 10649 10654 10660 10665 10669 10672 10675 10680 10685 10688 10691 10696 10700 10705 10708 10709 10711 10713 10715 10717 10720 10723 10726 10730 10734 10737 10740 10743 10744 10744 10742 10740
10300 10303 10305 10308 10312 10315 10319 10323 10327 10331 10335 10340 10345 10350 10355 10362 10368 10373 10378 10383 10390 10398 10406 10412 10420 10429 10438 10446 10454 10463 10471 10480 10488 10495 10503 10512 10523 10532 10539 10547 10555 10560 10566 10572 10578 10583 10591 10598 10605 10613 10620 10625 10627 10631 10636 10641 10646 10653 10659 10665 10669 10672 10674 10678 10681 10683 10686 10690 10694 10697 10699 10701 10704 10706 10708 10711 10714 10717 10722 10726 10730 10733 10736 10736 10735 10732 10729
10295 10298 10300 10303 10307 10310 10314 10318 10322 10326 10331 10336 10340 10345 10351 10357 10363 10367 10372 10378 10385 10393 10401 10407 10415 10424 10433 10441 10450 10458 10467 10476 10483 10491 10499 10508 10517 10526 10534 10541 10549 10555 10561 10566 10572 10579 10585 10592 10600 10607 10613 10618 10621 10624 10629 10634 10639 10645 10652 10658 10662 10664 10666 10670 10674 10676 10678 10681 10684 10687 10691 10694 10696 10698 10702 10705 10707 10708 10712 10717 10720 10721 10722 10722 10721 10719 10719
10291 10293 10296 10299 10302 10306 10309 10313 10317 10322 10327 10331 10336 10341 10347 10352 10357 10362 10368 10374 10382 10390 10398 10404 10412 10420 10429 10437 10445 10454 10462 10471 10480 10488 10496 10504 10512 10521 10529 10536 10543 10550 10555 10561 10568 10575 10580 10587 10595 10602 10607 10612 10616 10618 10623 10628 10631 10635 10643 10648 10650 10653 10657 10661 10665 10668 10670 10672 10675 10679 10684 10687 10690 10692 10695 10698 10699 10700 10703 10707 10709 10709 10709 10709 10709 10708 10707
10286 10289 10292 10295 10298 10301 10305 10309 10314 10318 10323 10328 10332 10337 10342 10348 10353 10359 10365 10371 10379 10387 10394 10400 10407 10416 10424 10433 10442 10450 10459 10469 10477 10485 10492 10500 10508 10516 10524 10531 10538 10544 10550 10556 10564 10570 10575 10582 10592 10598 10601 10605 10608 10610 10616 10621 10623 10627 10634 10638 10639 10643 10648 10652 10655 10658 10660 10663 10667 10672 10677 10681 10683 10686 10688 10689 10691 10692 10693 10697 10699 10700 10700 10700 10699 10698 10697
10283 10285 10288 10291 10295 10298 10301 10306 10310 10315 10319 10324 10328 10333 10339 10345 10350 10356 10362 10369 10376 10384 10390 10396 10403 10412 10420 10429 10438 10446 10456 10466 10474 10482 10489 10496 10504 10512 10520 10527 10533 10539 10545 10552 10559 10565 10570 10578 10587 10591 10593 10595 10598 10602 10608 10613 10616 10620 10625 10629 10632 10636 10641 10645 10649 10651 10654 10657 10662 10666 10670 10673 10676 10678 10679 10680 10682 10684 10686 10689 10691 10693 10693 10693 10691 10689 10688
10279 10282 10285 10288 10291 10295 10299 10303 10307 10312 10316 10321 10326 10331 10337 10342 10347 10353 10359 10366 10373 10380 10386 10392 10400 10409 10418 10427 10436 10444 10454 10463 10472 10479 10487 10494 10501 10510 10517 10523 10529 10536 10542 10549 10555 10560 10566 10574 10581 10583 10585 10588 10591 10595 10601 10606 10610 10614 10619 10624 10628 10633 10637 10642 10645 10647 10650 10653 10656 10659 10662 10664 10666 10667 10668 10670 10672 10675 10679 10682 10684 10686 10686 10685 10683 10681 10680
10276 10279 10282 10285 10289 10292 10296 10300 10305 10309 10314 10318 10323 10329 10334 10340 10345 10351 10358 10364 10371 10378 10384 10390 10398 10407 10416 10425 10434 10442 10451 10460 10469 10476 10484 10491 10498 10507 10515 10521 10526 10532 10538 10544 10550 10555 10563 10571 10576 10578 10580 10583 10586 10590 10596 10601 10606 10611 10616 10621 10627 10632 10635 10638 10640 10641 10643 10645 10647 10648 10650 10651 10653 10655 10657 10661 10664 10667 10671 10674 10676 10678 10678 10678 10676 10674 10673
10274 10277 10280 10283 10287 10290 10294 10298 10303 10307 10312 10316 10322 10328 10333 10338 10343 10349 10356 10363 10369 10376 10383 10389 10397 10406 10415 10423 10431 10439 10448 10457 10465 10473 10481 10488 10496 10504 10511 10517 10523 10528 10534 10540 10546 10552 10559 10566 10570 10571 10572 10576 10580 10584 10589 10597 10604 10610 10614 10619 10625 10628 10629 10629 10629 10630 10631 10632 10633 10634 10635 10639 10643 10647 10651 10655 10658 10661 10664 10666 10667 10668 10668 10669 10668 10667 10667
10273 10275 10278 10282 10285 10289 10293 10297 10301 10306 10311 10316 10321 10326 10331 10336 10341 10347 10354 10361 10367 10373 10381 10388 10396 10405 10414 10422 10430 10439 10447 10455 10463 10471 10478 10485 10492 10500 10507 10514 10519 10524 10530 10536 10542 10548 10554 10560 10563 10564 10565 10569 10575 10580 10588 10598 10606 10608 10610 10614 10617 10618 10618 10617 10617 10617 10616 10617 10619 10622 10626 10632 10638 10643 10647 10651 10653 10654 10655 10657 10658 10658 10658 10659 10659 10660 10660
10271 10274 10277 10281 10284 10288 10292 10297 10301 10305 10310 10315 10320 10325 10330 10335 10341 10347 10353 10359 10366 10372 10379 10387 10395 10404 10413 10421 10429 10439 10448 10456 10463 10469 10476 10483 10490 10496 10503 10510 10515 10520 10526 10532 10537 10543 10549 10554 10556 10558 10561 10566 10573 10580 10589 10597 10600 10599 10601 10604 10607 10608 10607 10605 10604 10602 10603 10606 10612 10619 10624 10629 10634 10637 10640 10643 10644 10644 10646 10648 10649 10650 10650 10650 10651 10651 10652
10270 10273 10276 10280 10284 10288 10292 10296 10301 10305 10310 10315 10320 10324 10329 10334 10340 10346 10352 10358 10365 10372 10380 10388 10395 10403 10411 10419 10428 10436 10445 10454 10462 10469 10474 10480 10486 10493 10500 10506 10511 10517 10524 10528 10533 10538 10543 10546 10549 10554 10560 10565 10571 10577 10583 10588 10590 10592 10595 10597 10598 10598 10597 10595 10595 10596 10600 10605 10611 10616 10620 10623 10625 10628 10630 10632 10634 10636 10638 10640 10641 10642 10642 10642 10642 10642 10642
10269 10272 10276 10279 10283 10287 10291 10295 10300 10304 10309 10314 10319 10323 10328 10333 10339 10345 10351 10358 10364 10372 10380 10387 10394 10402 10411 10419 10427 10434 10442 10451 10459 10466 10472 10478 10484 10490 10497 10503 10509 10515 10520 10524 10527 10532 10535 10539 10546 10554 10560 10564 10568 10572 10577 10582 10586 10589 10591 10591 10591 10591 10591 10590 10592 10595 10599 10603 10606 10609 10611 10613 10616 10618 10621 10624 10626 10627 10629 10630 10631 10632 10634 10634 10634 10634 10634
10269 10272 10275 10279 10282 10286 10290 10294 10299 10303 10308 10313 10318 10323 10328 10334 10339 10345 10351 10358 10364 10371 10378 10385 10393 10401 10410 10417 10425 10433 10442 10449 10456 10461 10468 10474 10482 10489 10495 10501 10507 10512 10515 10518 10522 10525 10529 10536 10546 10555 10560 10563 10566 10569 10572 10576 10580 10582 10583 10583 10583 10584 10585 10587 10590 10592 10595 10598 10600 10602 10604 10606 10608 10611 10613 10615 10617 10618 10619 10620 10621 10623 10624 10625 10625 10625 10625
10269 10271 10275 10278 10281 10285 10289 10294 10298 10303 10307 10312 10317 10322 10328 10334 10339 10345 10351 10358 10364 10370 10377 10384 10392 10400 10408 10415 10424 10432 10440 10447 10452 10458 10464 10470 10476 10483 10489 10496 10501 10506 10509 10512 10516 10520 10526 10536 10547 10553 10556 10559 10561 10563 10565 10567 10568 10569 10571 10573 10576 10579 10583 10586 10588 10589 10590 10592 10594 10595 10597 10599 10601 10603 10605 10607 10608 10609 10610 10610 10612 10614 10615 10616 10616 10617 10617
10268 10271 10274 10278 10281 10285 10289 10293 10298 10302 10307 10311 10316 10321 10327 10333 10338 10344 10351 10357 10364 10371 10377 10385 10392 10399 10407 10415 10424 10432 10438 10445 10450 10456 10462 10467 10472 10477 10482 10488 10494 10500 10503 10506 10510 10516 10525 10535 10543 10548 10551 10555 10556 10557 10557 10558 10558 10559 10563 10568 10573 10578 10582 10584 10585 10585 10586 10586 10587 10588 10590 10592 10594 10596 10598 10599 10600 10601 10601 10602 10604 10605 10606 10606 10607 10608 10609
10268 10271 10274 10278 10282 10285 10289 10293 10297 10302 10306 10311 10315 10320 10325 10331 10337 10344 10350 10357 10364 10371 10377 10384 10392 10400 10407 10415 10422 10429 10436 10443 10449 10455 10460 10464 10468 10472 10478 10484 10490 10495 10498 10502 10508 10516 10525 10532 10538 10543 10547 10550 10550 10549 10548 10549 10551 10555 10560 10565 10570 10574 10577 10578 10579 10580 10581 10582 10582 10583 10584 10586 10587 10589 10591 10592 10592 10593 10594 10595 10596 10596 10596 10597 10597 10598 10599
10268 10271 10274 10278 10281 10285 10288 10292 10296 10301 10305 10310 10315 10319 10324 10330 10336 10342 10348 10355 10361 10368 10376 10385 10392 10399 10404 10411 10418 10426 10432 10438 10445 10451 10456 10459 10463 10469 10477 10483 10488 10490 10494 10500 10507 10515 10522 10528 10532 10537 10540 10541 10541 10540 10541 10543 10548 10552 10557 10562 10565 10568 10570 10571 10572 10574 10576 10577 10578 10579 10580 10581 10582 10584 10584 10584 10586 10587 10587 10587 10588 10588 10587 10587 10587 10588 10589
10269 10272 10275 10278 10281 10285 10289 10292 10296 10300 10305 10310 10315 10321 10326 10331 10337 10342 10348 10355 10361 10369 10377 10384 10390 10396 10401 10409 10417 10424 10429 10435 10441 10447 10452 10456 10462 10470 10477 10482 10484 10488 10494 10501 10507 10513 10518 10523 10526 10529 10531 10532 10533 10536 10538 10542 10546 10550 10554 10557 10558 10560 10562 10564 10566 10568 10570 10571 10572 10573 10574 10576 10577 10577 10578 10578 10580 10580 10580 10580 10580 10580 10580 10579 10579 10579 10579
10270 10273 10276 10279 10282 10285 10289 10293 10297 10302 10307 10312 10318 10323 10328 10334 10340 10346 10351 10358 10364 10371 10377 10383 10389 10395 10403 10410 10415 10421 10427 10435 10441 10445 10449 10455 10462 10469 10474 10477 10479 10483 10491 10499 10505 10509 10513 10516 10518 10520 10522 10526 10530 10534 10538 10542 10545 10547 10548 10548 10550 10552 10555 10558 10561 10562 10563 10564 10566 10567 10568 10569 10569 10570 10571 10572 10573 10573 10572 10572 10572 10571 10571 10571 10570 10570 10570
10271 10274 10277 10280 10283 10287 10291 10295 10300 10305 10310 10315 10320 10325 10329 10335 10341 10348 10354 10360 10366 10371 10377 10382 10388 10394 10401 10408 10414 10421 10428 10434 10439 10443 10449 10455 10461 10466 10469 10469 10471 10478 10487 10495 10500 10504 10506 10507 10509 10513 10518 10524 10529 10533 10537 10539 10540 10540 10540 10541 10544 10546 10549 10552 10553 10555 10556 10557 10559 10560 10560 10561 10562 10562 10563 10564 10565 10564 10564 10563 10563 10563 10562 10561 10560 10560 10559
10273 10276 10279 10282 10285 10289 10293 10298 10302 10307 10311 10315 10320 10325 10330 10335 10341 10347 10353 10359 10364 10369 10375 10381 10388 10394 10401 10407 10414 10420 10426 10431 10436 10442 10448 10452 10456 10459 10461 10464 10469 10478 10488 10494 10498 10499 10499 10501 10505 10512 10518 10523 10527 10529 10531 10532 10532 10533 10535 10537 10539 10541 10543 10544 10546 10547 10548 10550 10551 10552 10553 10553 10553 10553 10554 10555 10555 10555 10554 10554 10553 10553 10552 10551 10549 10548 10548
10275 10278 10281 10284 10287 10291 10295 10299 10303 10308 10312 10316 10321 10326 10331 10337 10341 10345 10349 10355 10361 10367 10373 10380 10387 10394 10400 10405 10410 10415 10420 10426 10433 10438 10442 10446 10449 10454 10459 10465 10473 10481 10487 10491 10492 10493 10494 10498 10505 10511 10516 10519 10520 10522 10523 10525 10527 10529 10530 10532 10533 10534 10536 10537 10538 10539 10540 10541 10543 10543 10544 10544 10545 10545 10545 10545 10545 10545 10544 10543 10543 10543 10542 10540 10539 10537 10537
10277 10280 10283 10285 10288 10292 10296 10300 10305 10309 10313 10318 10323 10328 10333 10337 10341 10345 10350 10356 10363 10370 10376 10381 10386 10391 10396 10401 10406 10412 10418 10424 10429 10433 10438 10443 10449 10456 10463 10469 10475 10480 10483 10484 10486 10489 10493 10498 10503 10506 10509 10511 10512 10514 10516 10519 10521 10523 10524 10525 10526 10528 10529 10530 10531 10531 10532 10533 10534 10534 10535 10535 10535 10536 10536 10536 10536 10535 10534 10534 10533 10532 10531 10529 10528 10526 10525
10280 10282 10285 10288 10291 10294 10298 10301 10305 10309 10314 10318 10323 10328 10333 10338 10342 10347 10353 10358 10364 10370 10376 10381 10385 10390 10394 10399 10405 10411 10417 10422 10427 10431 10437 10444 10452 10458 10464 10468 10472 10475 10477 10479 10483 10487 10491 10495 10497 10499 10501 10503 10506 10508 10510 10512 10514 10515 10517 10518 10519 10521 10522 10522 10523 10524 10524 10525 10526 10526 10526 10526 10526 10527 10527 10527 10526 10525 10524 10523 10522 10520 10519 10518 10516 10514 10511
10281 10284 10287 10291 10294 10297 10300 10304 10307 10311 10315 10319 10323 10328 10333 10337 10342 10347 10353 10358 10364 10370 10375 10380 10385 10391 10396 10400 10405 10410 10415 10420 10426 10432 10439 10446 10453 10457 10461 10464 10466 10469 10472 10475 10479 10483 10486 10489 10491 10493 10496 10499 10501 10503 10504 10506 10507 10509 10510 10511 10513 10514 10515 10515 10516 10517 10517 10517 10517 10517 10518 10518 10518 10517 10517 10516 10515 10514 10513 10512 10511 10509 10507 10505 10503 10501 10498
10284 10286 10289 10293 10296 10299 10302 10306 10310 10313 10317 10321 10325 10330 10334 10338 10342 10346 10351 10356 10362 10368 10373 10379 10384 10388 10392 10397 10402 10409 10415 10421 10427 10433 10439 10444 10448 10451 10455 10458 10461 10464 10467 10471 10475 10478 10480 10483 10486 10489 10492 10494 10495 10497 10498 10500 10501 10502 10503 10505 10507 10508 10508 10509 10510 10510 10510 10510 10509 10509 10510 10510 10509 10508 10507 10506 10505 10504 10503 10501 10500 10498 10496 10493 10491 10488 10486